{"data":{"norad_id":67970,"intl_designator":"2026-038K","name":"STARLINK-36319","alt_names":[],"object_type":"PAYLOAD","status":"ACTIVE","operator":null,"country":"US","launch_date":"2026-02-25","launch_site_code":"AFWTR","launch_vehicle":null,"mission":null,"orbit_class":"UNKNOWN","rcs_meters":null,"size_class":null,"mass_kg":null,"dimensions":null,"purposes":["comms"],"wikipedia_slug":null,"has_3d_model":false,"image_url":null,"decayed_at":null,"tle_current":{"epoch":"2026-09-19T18:58:39.976608Z","epoch_age_seconds":120910,"freshness":"FRESH","line1":"1 67970U 26038K   26262.79074047  .00013634  00000+0  42384-3 0  9994","line2":"2 67970  97.2845 271.1248 0001608  92.2062 267.9365 15.33448100 32986","mean_motion":15.334481,"eccentricity":0.0001608,"inclination_deg":97.2845,"raan_deg":271.1248,"arg_perigee_deg":92.2062,"mean_anomaly_deg":267.9365,"bstar":0.00042384,"rev_number":3298,"period_min":93.906014817195,"perigee_km":464.43348878577,"apogee_km":466.63441336364,"semimajor_km":6843.6709510747,"source":"CELESTRAK","updated_at":"2026-09-20T09:00:43.730876Z"}}}